Location: Cosy Dell
(34.2789°N, 117.4537°W)
Time: 23:17:32
(UTC+00:00)

Cosmos 1607 - Pass Details

Date: 14 July 2020
Orbit: 912 x 990 km, 65.0° (Epoch: 12 August)

Event Time Altitude Azimuth Distance (km) Brightness Sun altitude
Exits shadow 07:16:21 59° 4° (N) 1,076 4.3 -33.4°
Drops below altitude 10° 07:21:28 10° 25° (NNE) 2,684 6.9 -33.5°
Sets 07:24:04 0° 28° (NNE) 3,644 7.7 -33.6°
